This is the latest recevied weather packets stored in our database for station/object KN6CRX. If no packets are shown the sender has not sent any weather packets the latest 10 day(s).
| Time | Temp. | Humidity | Pressure | Rain* | Wind** | Luminosity | Snow |
|---|---|---|---|---|---|---|---|
| 1787551185 | 17.78° C | 69% | 1022.4 hPa | 0 mm | - | 0 W/m² | - |
| 1787550881 | 17.78° C | 69% | 1022.8 hPa | 0 mm | - | 0 W/m² | - |
| 1787550577 | 17.78° C | 69% | 1022.6 hPa | 0 mm | - | 0 W/m² | - |
| 1787550271 | 17.78° C | 69% | 1022.2 hPa | 0 mm | - | 0 W/m² | - |
| 1787549967 | 17.78° C | 69% | 1022 hPa | 0 mm | - | 0 W/m² | - |
| 1787549663 | 18.89° C | 67% | 1021.6 hPa | 0 mm | - | 0 W/m² | - |
| 1787549359 | 19.44° C | 62% | 1021.6 hPa | 0 mm | - | 0 W/m² | - |
| 1787549054 | 19.44° C | 59% | 1022 hPa | 0 mm | - | 0 W/m² | - |
| 1787548750 | 20° C | 60% | 1022 hPa | 0 mm | - | 0 W/m² | - |
| 1787548446 | 20.56° C | 57% | 1022.1 hPa | 0 mm | - | 0 W/m² | - |
| 1787548141 | 20.56° C | 53% | 1021.5 hPa | 0 mm | - | 0 W/m² | - |
| 1787547837 | 20° C | 56% | 1021.3 hPa | 0 mm | - | 0 W/m² | - |
| 1787547536 | 19.44° C | 61% | 1021.4 hPa | 0 mm | - | 0 W/m² | - |
| 1787547232 | 19.44° C | 66% | 1022.9 hPa | 0 mm | - | 0 W/m² | - |
| 1787546927 | 19.44° C | 64% | 1023.6 hPa | 0 mm | - | 0 W/m² | - |
| 1787546623 | 20° C | 63% | 1023.6 hPa | 0 mm | - | 0 W/m² | - |
| 1787546319 | 20° C | 63% | 1023.3 hPa | 0 mm | - | 0 W/m² | - |
| 1787546015 | 20° C | 61% | 1022.8 hPa | 0 mm | - | 0 W/m² | - |
| 1787545710 | 20° C | 60% | 1022.6 hPa | 0 mm | - | 0 W/m² | - |
| 1787545406 | 20° C | 59% | 1023.1 hPa | 0 mm | - | 0 W/m² | - |
| 1787545102 | 20° C | 59% | 1021.7 hPa | 0 mm | - | 0 W/m² | - |
| 1787544799 | 20° C | 62% | 1022.3 hPa | 0 mm | - | 0 W/m² | - |
| 1787544494 | 20° C | 61% | 1022.9 hPa | 0 mm | - | 0 W/m² | - |
| 1787544185 | 20° C | 60% | 1023.1 hPa | 0 mm | - | 0 W/m² | - |
| 1787543885 | 20° C | 60% | 1022.5 hPa | 0 mm | - | 0 W/m² | - |
* Rain latest hour (hover to see other rain measurements)
** Current wind speed in m/s (hover to see current wind gust speed)